Redmond, OR

5:25 PM PST on November 15, 2019 (GMT -0800)
Roberts Field Airport

Weather History for KRDM - August, 2019

Change the Weather History Date:

Tuesday, August 27, 2019

  Actual Average Record
Temperature  
Mean Temperature 67 °F 63 °F  
Max Temperature 90 °F 82 °F 98 °F (1972)
Min Temperature 44 °F 43 °F 33 °F (1981)
Degree Days  
Heating Degree Days 0 4  
Month to date heating degree days 14 64  
Since 1 June heating degree days 196 350  
Since 1 July heating degree days 47 133  
Cooling Degree Days 2 1  
Month to date cooling degree days 115 76  
Year to date cooling degree days 221 202  
Since 1 June cooling degree days 221 197  
Growing Degree Days 17 (Base 50)    
Moisture  
Dew Point 38 °F    
Average Humidity 44    
Maximum Humidity 71    
Minimum Humidity 17    
Precipitation  
Precipitation 0.00 in 0.02 in 0.46 in (1975)
Month to date precipitation T 0.43  
Year to date precipitation 7.46 5.66  
Sea Level Pressure  
Sea Level Pressure 30.01 in    
Wind  
Wind Speed 6 mph (WNW)    
Max Wind Speed 18 mph    
Max Gust Speed 23 mph    
Visibility 10 miles    
Events      
T = Trace of Precipitation, MM = Missing Value Source: NWS Daily Summary

Daily Weather History Graph

Daily Weather History Graph

Search for Another Location

Airport or City:

Astronomy

Aug. 27, 2019 Rise Set
Actual Time 6:21 AM PDT 7:49 PM PDT
Civil Twilight 5:51 AM PDT 8:19 PM PDT
Nautical Twilight 5:14 AM PDT 8:56 PM PDT
Astronomical Twilight 4:35 AM PDT 9:35 PM PDT
Moon 2:43 AM PDT (8/27) 6:22 PM PDT (8/27)
Length of Visible Light 14h 28m
Length of Day
13h 28m
Waning Crescent, 10% of the Moon is Illuminated
Aug 27
Waning Crescent
Aug 30
New
Sep 5
First Quarter
Sep 13
Full
Sep 21
Last Quarter

Hourly Weather History & Observations

Time (PDT) Temp. Windchill Dew Point Humidity Pressure Visibility Wind Dir Wind Speed Gust Speed Precip Events Conditions
12:56 AM 61.0 °F - 39.0 °F 44% 30.08 in 10.0 mi West 8.1 mph - N/A   Clear
1:56 AM 50.0 °F - 37.0 °F 61% 30.09 in 10.0 mi Calm Calm - N/A   Clear
2:56 AM 48.0 °F - 37.0 °F 66% 30.09 in 10.0 mi SSE 3.5 mph - N/A   Clear
3:56 AM 46.9 °F - 37.0 °F 68% 30.08 in 10.0 mi SSE 4.6 mph - N/A   Clear
4:56 AM 45.0 °F 42.6 °F 36.0 °F 71% 30.08 in 10.0 mi South 4.6 mph - N/A   Clear
5:56 AM 46.0 °F - 37.0 °F 71% 30.09 in 10.0 mi Calm Calm - N/A   Clear
6:56 AM 46.0 °F - 37.0 °F 71% 30.10 in 10.0 mi Calm Calm - N/A   Clear
7:56 AM 55.9 °F - 39.0 °F 53% 30.10 in 10.0 mi Calm Calm - N/A   Clear
8:56 AM 62.1 °F - 39.0 °F 43% 30.09 in 10.0 mi Calm Calm - N/A   Clear
9:56 AM 66.0 °F - 39.0 °F 37% 30.09 in 10.0 mi West 4.6 mph - N/A   Clear
10:56 AM 72.0 °F - 39.9 °F 31% 30.07 in 10.0 mi NNW 5.8 mph - N/A   Clear
11:56 AM 75.0 °F - 41.0 °F 29% 30.04 in 10.0 mi Variable 3.5 mph - N/A   Clear
12:56 PM 79.0 °F - 42.1 °F 27% 30.02 in 10.0 mi NNW 9.2 mph - N/A   Clear
1:56 PM 82.0 °F - 41.0 °F 23% 30.00 in 10.0 mi Variable 3.5 mph - N/A   Clear
2:56 PM 86.0 °F - 42.1 °F 21% 29.97 in 10.0 mi NW 6.9 mph - N/A   Clear
3:56 PM 88.0 °F - 41.0 °F 19% 29.94 in 10.0 mi NW 9.2 mph - N/A   Clear
4:56 PM 89.1 °F - 39.0 °F 17% 29.92 in 10.0 mi NNW 17.3 mph - N/A   Clear
5:56 PM 88.0 °F - 37.9 °F 17% 29.91 in 10.0 mi NW 16.1 mph - N/A   Clear
6:56 PM 84.9 °F - 37.0 °F 18% 29.91 in 10.0 mi NNW 15.0 mph - N/A   Clear
7:56 PM 80.1 °F - 37.0 °F 21% 29.90 in 10.0 mi NW 9.2 mph - N/A   Clear
8:56 PM 75.9 °F - 37.9 °F 25% 29.91 in 10.0 mi NW 10.4 mph - N/A   Clear
9:56 PM 73.9 °F - 37.0 °F 26% 29.92 in 10.0 mi NW 9.2 mph - N/A   Clear
10:56 PM 70.0 °F - 37.0 °F 30% 29.92 in 10.0 mi WNW 5.8 mph - N/A   Clear
11:56 PM 66.9 °F - 36.0 °F 32% 29.93 in 10.0 mi West 5.8 mph - N/A   Clear